Simultaneous Nadir Overpasses (SNOs) Predictions

Prediction of SNOs between METOP-A and NOAA-19 Satellite Orbit:

Table of predicted SNOs for the next 14.0 days since TLE Epoch: 3/14/2014
Index Date (METOP-A) Time (METOP-A) Lat,Lon (METOP-A) SZA (METOP-A ) Date (NOAA-19) Time (NOAA-19) Lat,Lon (NOAA-19) SZA (NOAA-19 ) Distance(km) Time Diff (sec)
1 03/18/2014 09:03:52 -74.42,-140.84 104.64 03/18/2014 09:02:42 -74.43,-142.94 104.53 62.74 70
2 03/18/2014 09:54:40 74.00, 25.45 74.98 03/18/2014 09:53:31 73.99, 25.47 74.97 1.71 69
3 03/18/2014 10:45:22 -74.00,-167.23 105.04 03/18/2014 10:44:37 -74.00,-167.34 105.03 3.51 45
4 03/18/2014 11:36:02 73.98, 0.05 74.93 03/18/2014 11:35:34 73.95, 0.06 74.90 3.54 28
5 03/18/2014 12:26:45 -73.93, 167.26 105.14 03/18/2014 12:26:40 -73.96, 167.25 105.10 3.29 5
6 03/18/2014 13:17:25 73.90, -25.47 74.83 03/18/2014 13:17:37 73.90, -25.36 74.83 3.57 12
7 03/18/2014 14:08:07 -73.91, 141.86 105.19 03/18/2014 14:08:43 -73.92, 141.84 105.18 1.43 36
8 03/18/2014 14:58:47 73.88, -50.87 74.78 03/18/2014 14:59:41 73.91, -50.89 74.81 3.62 54
9 03/18/2014 15:49:31 -73.78, 116.22 105.32 03/18/2014 15:50:45 -73.83, 116.55 105.31 11.28 74
10 03/28/2014 14:00:53 -74.02, 143.89 109.04 03/28/2014 13:59:43 -74.03, 143.92 109.02 1.61 70
11 03/28/2014 14:51:32 74.03, -48.74 70.96 03/28/2014 14:50:40 74.02, -48.80 70.96 2.06 52
12 03/28/2014 15:42:15 -73.99, 118.49 109.10 03/28/2014 15:41:46 -73.99, 118.51 109.09 0.57 29
13 03/28/2014 16:32:55 73.95, -74.26
